Weather History for Trenton, NJ

Change the Weather History Date:

Tuesday, March 19, 2013

  Actual Average Record
Temperature  
Mean Temperature 43 °F 42 °F  
Max Temperature 50 °F 52 °F 79 °F (2012)
Min Temperature 35 °F 33 °F 9 °F (1967)
Degree Days  
Heating Degree Days 22 23  
Month to date heating degree days 488 483  
Since 1 July heating degree days 4089 4297  
Cooling Degree Days 0 0  
Month to date cooling degree days 0 0  
Year to date cooling degree days 0 0  
Moisture  
Dew Point 32 °F    
Average Humidity 68    
Maximum Humidity 100    
Minimum Humidity 36    
Precipitation  
Precipitation 0.21 in 0.15 in 1.60 in (1899)
Month to date precipitation 2.07 2.49  
Year to date precipitation 6.69 7.96  
Sea Level Pressure  
Sea Level Pressure 29.76 in    
Wind  
Wind Speed 11 mph (NNE)    
Max Wind Speed 25 mph    
Max Gust Speed 32 mph    
Visibility 7 miles    
Events Rain    
T = Trace of Precipitation, MM = Missing Value Source: NWS Daily Summary

Daily Weather History Graph

Daily Weather History Graph

Search for Another Location

Airport:

Trip Planner

Search our weather history database for the weather conditions in past years. The results will help you decide how hot, cold, wet, or windy it might be!

Date:

Astronomy

Mar. 19, 2013 Rise Set
Actual Time 7:03 AM EDT 7:10 PM EDT
Civil Twilight 6:36 AM EDT 7:37 PM EDT
Nautical Twilight 6:05 AM EDT 8:09 PM EDT
Astronomical Twilight 5:32 AM EDT 8:41 PM EDT
Moon 11:51 AM EDT (3/19) 1:56 AM EDT (3/19)
Length of Visible Light 13h 00m
Length of Day
12h 06m
Waxing Crescent, 49% of the Moon is Illuminated
Mar 19
Waxing Crescent
Mar 19
First Quarter
Mar 27
Full
Apr 3
Last Quarter
Apr 10
New

Hourly Weather History & Observations

Time (EDT) Temp. Windchill Dew Point Humidity Pressure Visibility Wind Dir Wind Speed Gust Speed Precip Events Conditions
12:53 AM 36.0 °F 27.5 °F 34.0 °F 93% 29.87 in 7.0 mi East 12.7 mph 20.7 mph 0.07 in Rain Light Rain
1:53 AM 37.0 °F 28.5 °F 35.1 °F 93% 29.84 in 5.0 mi East 13.8 mph - 0.04 in Rain Light Rain
2:53 AM 37.0 °F 27.4 °F 35.1 °F 93% 29.83 in 6.0 mi East 17.3 mph 20.7 mph 0.05 in Rain Light Rain
3:53 AM 37.0 °F 28.1 °F 34.0 °F 89% 29.79 in 4.0 mi East 15.0 mph 21.9 mph 0.04 in Rain Light Rain
4:53 AM 36.0 °F 28.0 °F 34.0 °F 93% 29.78 in 10.0 mi ENE 11.5 mph - 0.00 in   Overcast
5:53 AM 35.1 °F 27.9 °F 34.0 °F 96% 29.75 in 9.0 mi ENE 9.2 mph - N/A   Overcast
6:50 AM 35.6 °F 29.2 °F 33.8 °F 93% 29.77 in 9.0 mi ENE 8.1 mph - N/A   Overcast
6:53 AM 36.0 °F 30.3 °F 34.0 °F 93% 29.76 in 9.0 mi ENE 6.9 mph - N/A   Overcast
7:36 AM 35.6 °F 29.9 °F 33.8 °F 93% 29.76 in 2.5 mi ENE 6.9 mph - N/A   Overcast
7:53 AM 36.0 °F 29.6 °F 34.0 °F 93% 29.74 in 2.0 mi ENE 8.1 mph - N/A   Overcast
8:53 AM 36.0 °F 30.3 °F 35.1 °F 97% 29.74 in 2.0 mi ENE 6.9 mph - 0.01 in Rain Light Rain
9:39 AM 35.6 °F 29.9 °F 33.8 °F 93% 29.76 in 1.8 mi North 6.9 mph - 0.01 in Rain Light Rain
9:53 AM 36.0 °F 29.6 °F 34.0 °F 93% 29.76 in 2.0 mi North 8.1 mph - 0.01 in Rain Light Rain
10:36 AM 35.6 °F 29.2 °F 33.8 °F 93% 29.79 in 1.8 mi NNW 8.1 mph - 0.01 in   Overcast
10:46 AM 35.6 °F 30.7 °F 33.8 °F 93% 29.77 in 2.5 mi North 5.8 mph - 0.03 in Rain Light Rain
10:53 AM 36.0 °F 30.3 °F 34.0 °F 93% 29.75 in 3.0 mi North 6.9 mph - 0.03 in Rain Light Rain
11:22 AM 35.6 °F 30.7 °F 33.8 °F 93% 29.78 in 3.0 mi North 5.8 mph - 0.03 in Rain Rain
11:53 AM 37.9 °F 31.5 °F 35.1 °F 89% 29.75 in 10.0 mi North 9.2 mph - 0.04 in   Overcast
12:27 PM 39.2 °F 33.6 °F 35.6 °F 87% 29.76 in 10.0 mi NNW 8.1 mph - N/A   Overcast
12:53 PM 39.9 °F 33.9 °F 36.0 °F 86% 29.75 in 10.0 mi North 9.2 mph - N/A   Overcast
1:53 PM 43.0 °F 37.7 °F 37.0 °F 80% 29.71 in 10.0 mi North 9.2 mph - N/A   Mostly Cloudy
2:19 PM 44.6 °F 39.7 °F 35.6 °F 71% 29.72 in 10.0 mi NNW 9.2 mph - N/A   Scattered Clouds
2:53 PM 46.0 °F 39.0 °F 34.0 °F 63% 29.71 in 10.0 mi North 17.3 mph 24.2 mph N/A   Mostly Cloudy
3:53 PM 48.9 °F - 33.1 °F 54% 29.70 in 10.0 mi Variable 6.9 mph - N/A   Scattered Clouds
4:53 PM 48.9 °F - 28.9 °F 46% 29.70 in 10.0 mi NW 11.5 mph 18.4 mph N/A   Clear
5:53 PM 50.0 °F - 26.1 °F 39% 29.69 in 10.0 mi NW 12.7 mph 20.7 mph N/A   Clear
6:53 PM 48.0 °F - 27.0 °F 44% 29.71 in 10.0 mi NW 8.1 mph - N/A   Overcast
7:53 PM 46.0 °F - 28.0 °F 50% 29.72 in 10.0 mi Calm Calm - N/A   Partly Cloudy
8:53 PM 44.1 °F 39.5 °F 28.0 °F 53% 29.74 in 10.0 mi NNW 8.1 mph - N/A   Clear
9:53 PM 43.0 °F 34.8 °F 18.0 °F 37% 29.79 in 10.0 mi NW 18.4 mph 27.6 mph N/A   Clear
10:53 PM 39.9 °F 30.5 °F 16.0 °F 38% 29.82 in 10.0 mi NW 19.6 mph 27.6 mph N/A   Partly Cloudy
11:53 PM 37.0 °F 29.3 °F 15.1 °F 41% 29.84 in 10.0 mi NNW 11.5 mph 24.2 mph N/A   Partly Cloudy